[[{"header":{"parameterUnit":"m.s-1","parameterCategory":1,"la1":30.2991,"la2":30.254,"lo1":-89.0895,"lo2":-89.0444,"dy":0.0017,"dx":0.0017,"nx":28,"ny":28,"refTime":"2025-03-13T03:00:00:Z","depth":0,"parameterNumber":2,"parameterNumberName":"U-component_of_WINDS"},"data":[0,0,0,0,0,0,0,0,0,0,0,0,0,0,0,0,0,0,0,0,0,0,0,0,0,0,0,0,0,0,0,0,0,0,0,0,0,0,0,0,0,0,0,0,0,0,0,0,0,0,0,0,0,0,0,0,0,0,0.3295,0.3295,0,0.3349,0.335,0.3351,0.3358,0.3357,0.3357,0.3356,0.3411,0.3413,0.3415,0,0,0,0,0,0,0,0,0,0,0,0,0,0.3193,0.3195,0.3294,0.3295,0.3296,0.3349,0.335,0.3351,0.3358,0.3357,0.3357,0.3356,0.341,0.3413,0.3415,0,0,0,0,0,0,0,0,0,0,0,0,0,0.3242,0.3196,0.3294,0.3306,0.3308,0.3349,0.335,0.3351,0.3358,0.3357,0.3357,0.3356,0.341,0.3413,0.3415,0.3449,0,0,0.3424,0.3426,0,0,0,0,0,0,0,0,0.3239,0.3245,0.3304,0.3305,0.3307,0.3346,0.3334,0.3384,0.3358,0.3339,0.3356,0.3356,0.339,0.3394,0.3406,0.3451,0.3454,0.3425,0.3426,0.3428,0.3428,0,0,0,0,0,0,0,0.3236,0.3243,0.3316,0.3304,0.3307,0.3307,0.3313,0.3344,0.3368,0.3341,0.3341,0.3348,0.3391,0.3404,0.3408,0.3454,0.3424,0.3427,0.3429,0.343,0.3527,0.3528,0,0,0,0,0,0,0.323,0.324,0.3314,0.3318,0.327,0.331,0.3317,0.3334,0.3368,0.3372,0.3348,0.3348,0.3399,0.3404,0.341,0.345,0.3427,0.343,0.3432,0.3526,0.3527,0.3528,0,0,0,0,0,0,0.3228,0.3237,0.3312,0.3279,0.3289,0.3313,0.3332,0.3336,0.3349,0.3374,0.3378,0.3357,0.3399,0.3406,0.3439,0.3452,0.3432,0.3434,0.3525,0.3526,0.3528,0.3531,0,0,0,0,0,0,0.3225,0.3236,0.325,0.3279,0.3291,0.3341,0.3333,0.3337,0.3354,0.3354,0.3383,0.3387,0.3399,0.3434,0.3441,0.3455,0.3436,0.3524,0.3526,0.3527,0.3529,0.3532,0.3534,0,0,0,0,0,0.3222,0.3249,0.3251,0.3259,0.3308,0.3342,0.3348,0.3361,0.3355,0.3368,0.3384,0.3386,0.3449,0.3437,0.3446,0.3461,0.3523,0.3525,0.3527,0.3528,0.3531,0.3534,0,0,0,0,0,0,0.322,0.3253,0.3255,0.3293,0.3314,0.3343,0.3361,0.3364,0.3388,0.3387,0.3401,0.3408,0.344,0.3453,0.344,0.3493,0.3485,0.3489,0.3484,0.3487,0.3489,0.3485,0.3439,0,0,0,0,0,0.3224,0.3249,0.3276,0.3307,0.3317,0.3337,0.3352,0.336,0.3383,0.3392,0.341,0.3432,0.3456,0.3472,0.3496,0.3531,0.3537,0.3545,0.3547,0.3549,0.3552,0.357,0.3574,0.3534,0.3534,0.3534,0,0,0.3233,0.3254,0.3269,0.3307,0.3325,0.3349,0.3345,0.3372,0.339,0.3396,0.3428,0.3442,0.3467,0.35,0.3516,0.3513,0.3564,0.3551,0.3553,0.3555,0.3572,0.3576,0.3579,0.3535,0.3535,0.3535,0,0,0.3261,0.328,0.3307,0.3324,0.3351,0.3363,0.337,0.3397,0.3407,0.3439,0.3444,0.3465,0.3507,0.3524,0.3539,0.3571,0.3573,0.3578,0.359,0.3607,0.361,0.3613,0.3623,0.3627,0.3581,0.3581,0.3581,0,0.3268,0.3307,0.332,0.3346,0.3362,0.3369,0.3395,0.3411,0.3444,0.3454,0.345,0.3502,0.3519,0.3556,0.3564,0.3575,0.3582,0.3575,0.3608,0.3611,0.3614,0.3624,0.3628,0.3581,0.3581,0.3581,0.3581,0,0.3314,0.334,0.3358,0.339,0.3407,0.3434,0.345,0.3466,0.3472,0.3484,0.3516,0.3537,0.3564,0.3573,0.358,0.3611,0.3607,0.3606,0.3598,0.3618,0.3628,0.3632,0.3582,0.3582,0.3581,0.3581,0,0,0.3344,0.3381,0.3388,0.3401,0.343,0.345,0.3476,0.3503,0.3516,0.3538,0.3559,0.3593,0.3591,0.3607,0.3615,0.363,0.3652,0.3626,0.3627,0.363,0.3686,0.3688,0.3692,0.3654,0.3655,0.3655,0.3684,0,0.3375,0.3422,0.3433,0.3473,0.3496,0.3502,0.3524,0.3543,0.3555,0.3576,0.3588,0.3612,0.3608,0.3617,0.3633,0.3647,0.3664,0.3645,0.3673,0.3674,0.3666,0.3697,0.3699,0.3725,0.3688,0.3689,0.3689,0,0.3418,0.3441,0.3483,0.3507,0.3517,0.3537,0.3561,0.3582,0.3603,0.361,0.3627,0.3633,0.3658,0.3648,0.3683,0.3669,0.3681,0.3689,0.3691,0.3694,0.3683,0.3701,0.3734,0.3738,0.3696,0.3695,0.3695,0,0.3435,0.3476,0.3506,0.3517,0.3547,0.356,0.3573,0.3593,0.3608,0.3629,0.3639,0.3662,0.3675,0.3693,0.3704,0.3696,0.3737,0.3729,0.3743,0.3742,0.3752,0.3751,0.3787,0.3759,0.3759,0.3759,0.3759,0,0.3469,0.3494,0.3514,0.3532,0.356,0.3572,0.3598,0.3611,0.3629,0.3649,0.3654,0.3673,0.3687,0.3707,0.3715,0.3742,0.3748,0.3753,0.3755,0.3753,0.3752,0.3761,0.3759,0.376,0.376,0.376,0.376,0,0.3493,0.3507,0.354,0.3564,0.3571,0.359,0.3611,0.3628,0.3639,0.3664,0.367,0.3688,0.3711,0.3724,0.3754,0.3759,0.3788,0.379,0.3781,0.3782,0.3795,0.3794,0.3838,0.3844,0.3813,0.3813,0.3814,0,0.3514,0.3533,0.3559,0.3573,0.3586,0.3608,0.3623,0.3635,0.365,0.3675,0.3688,0.3712,0.3732,0.3769,0.3783,0.3805,0.3807,0.3821,0.381,0.3806,0.3806,0.3805,0.3806,0.3823,0.3823,0.3823,0.3823,0,0.3548,0.3554,0.3576,0.3599,0.3617,0.3636,0.3655,0.3665,0.368,0.3696,0.372,0.3736,0.3765,0.3788,0.3811,0.3822,0.3825,0.3826,0.3831,0.3828,0.3823,0.3825,0.3786,0.3826,0.3825,0.3825,0.3825,0.3825,0.3571,0.3588,0.3608,0.3632,0.3647,0.3664,0.3681,0.3694,0.3714,0.3739,0.3745,0.377,0.3788,0.3819,0.3831,0.385,0.3847,0.3854,0.3856,0.3857,0.3857,0.3819,0.3854,0.3854,0.3854,0.3854,0.3854,0,0.3605,0.3618,0.364,0.3665,0.3683,0.3684,0.3704,0.3719,0.3741,0.3759,0.3777,0.3804,0.3826,0.3841,0.3863,0.3875,0.3877,0.388,0.388,0.3882,0.3859,0.3852,0.3879,0.3879,0.3879,0.3879,0.3879,0.3879,0.3625,0.3653,0.3661,0.3696,0.3709,0.3733,0.3745,0.376,0.3774,0.3803,0.3821,0.3831,0.3848,0.387,0.389,0.3894,0.3901,0.3905,0.3909,0.3886,0.3884,0.3881,0.3876,0.3906,0.3906,0.393,0.393,0.3931]},{"header":{"parameterUnit":"m.s-1","parameterCategory":1,"la1":30.2991,"la2":30.254,"lo1":-89.0895,"lo2":-89.0444,"dy":0.0017,"dx":0.0017,"nx":28,"ny":28,"refTime":"2025-03-13T03:00:00:Z","depth":0,"parameterNumber":3,"parameterNumberName":"V-component_of_WINDS"},"data":[0,0,0,0,0,0,0,0,0,0,0,0,0,0,0,0,0,0,0,0,0,0,0,0,0,0,0,0,0,0,0,0,0,0,0,0,0,0,0,0,0,0,0,0,0,0,0,0,0,0,0,0,0,0,0,0,0,0,2.2457,2.2457,0,2.2459,2.2459,2.2459,2.2422,2.2421,2.242,2.2419,2.242,2.2421,2.2422,0,0,0,0,0,0,0,0,0,0,0,0,0,2.242,2.2421,2.2457,2.2457,2.2457,2.2459,2.2459,2.2459,2.2422,2.2421,2.2419,2.2418,2.242,2.2421,2.2422,0,0,0,0,0,0,0,0,0,0,0,0,0,2.243,2.2421,2.2457,2.2439,2.2437,2.2459,2.2459,2.2459,2.2422,2.2421,2.2419,2.2418,2.2419,2.2421,2.2422,2.2461,0,0,2.2427,2.2427,0,0,0,0,0,0,0,0,2.243,2.2432,2.2441,2.244,2.2438,2.2438,2.2446,2.2459,2.2422,2.2428,2.2419,2.2417,2.2427,2.2428,2.2432,2.2461,2.2461,2.2427,2.2428,2.2428,2.2429,0,0,0,0,0,0,0,2.2429,2.2432,2.2457,2.2441,2.2439,2.243,2.243,2.2448,2.2436,2.2427,2.2424,2.2425,2.2426,2.243,2.2431,2.2461,2.2427,2.2428,2.2429,2.2429,2.2522,2.2524,0,0,0,0,0,0,2.2431,2.2431,2.2457,2.2457,2.243,2.2432,2.2432,2.244,2.2435,2.2433,2.2427,2.2424,2.2429,2.243,2.2431,2.2476,2.2428,2.2429,2.243,2.2521,2.2523,2.2524,0,0,0,0,0,0,2.243,2.2434,2.2457,2.2444,2.2446,2.2434,2.2443,2.2441,2.2445,2.2435,2.2432,2.2433,2.2427,2.2429,2.2454,2.2476,2.243,2.2431,2.2519,2.2521,2.2523,2.2567,0,0,0,0,0,0,2.243,2.2434,2.2449,2.2444,2.2447,2.248,2.2445,2.2442,2.2447,2.2443,2.2441,2.2439,2.2426,2.2452,2.2455,2.2477,2.2433,2.2517,2.252,2.2523,2.2564,2.2571,2.2577,0,0,0,0,0,2.2428,2.2461,2.245,2.2453,2.2465,2.2481,2.2483,2.2468,2.2449,2.2464,2.2458,2.2439,2.2473,2.2455,2.2458,2.2481,2.2515,2.2519,2.2522,2.2561,2.2569,2.2577,0,0,0,0,0,0,2.2467,2.246,2.2447,2.2479,2.2481,2.2475,2.2493,2.2478,2.2485,2.2481,2.2463,2.2462,2.249,2.2488,2.2467,2.2518,2.2491,2.2495,2.2519,2.2527,2.2533,2.2533,2.2434,0,0,0,0,0,2.248,2.2494,2.2486,2.2515,2.2517,2.2505,2.2512,2.25,2.2502,2.2502,2.2498,2.25,2.2511,2.2519,2.2528,2.2563,2.2562,2.258,2.2587,2.2592,2.2596,2.2615,2.2623,2.2536,2.2536,2.2536,0,0,2.2505,2.2503,2.2513,2.2523,2.2523,2.2538,2.2506,2.2523,2.2534,2.2505,2.2528,2.2525,2.2526,2.2556,2.2568,2.2555,2.262,2.2597,2.2601,2.2602,2.2619,2.2628,2.2635,2.2539,2.2538,2.2538,0,0,2.256,2.2559,2.2583,2.2585,2.2586,2.2577,2.2583,2.258,2.2577,2.2599,2.2578,2.259,2.261,2.2611,2.2615,2.267,2.2653,2.2674,2.2708,2.2726,2.2733,2.2739,2.2759,2.2766,2.2678,2.2678,2.2678,0,2.2591,2.2614,2.2598,2.2616,2.2621,2.2596,2.262,2.2622,2.2626,2.263,2.2614,2.2638,2.2637,2.2667,2.2681,2.2684,2.269,2.2674,2.2733,2.2739,2.2745,2.2763,2.2771,2.268,2.268,2.268,2.268,0,2.2652,2.2668,2.2687,2.2692,2.2699,2.2721,2.2708,2.2717,2.2705,2.2699,2.2722,2.272,2.2729,2.2735,2.2723,2.2764,2.2755,2.2737,2.2709,2.2756,2.2773,2.278,2.2684,2.2683,2.2682,2.2682,0,0,2.2732,2.2728,2.2735,2.2737,2.2736,2.2748,2.2768,2.2777,2.2785,2.2789,2.2806,2.2823,2.2806,2.281,2.2798,2.2814,2.2858,2.2794,2.2793,2.2806,2.2903,2.2917,2.2925,2.2847,2.2848,2.2849,2.2903,0,2.2785,2.2819,2.2805,2.2841,2.2855,2.2831,2.2849,2.285,2.2845,2.2856,2.2849,2.2862,2.2839,2.2841,2.2856,2.285,2.2877,2.2846,2.2862,2.2863,2.2863,2.2934,2.2949,2.3,2.2909,2.291,2.2911,0,2.2851,2.2858,2.2895,2.2892,2.2898,2.2914,2.2921,2.2932,2.2933,2.2928,2.2933,2.2917,2.2937,2.2909,2.2935,2.2914,2.292,2.2918,2.292,2.2921,2.289,2.2938,2.3015,2.3023,2.2922,2.2921,2.292,0,2.2906,2.2924,2.2949,2.2951,2.2948,2.296,2.2959,2.2959,2.2965,2.2972,2.2975,2.2984,2.2988,2.2995,2.2982,2.2963,2.3011,2.2982,2.3007,2.3008,2.3018,2.3018,2.3099,2.3022,2.3022,2.3022,2.3021,0,2.2966,2.299,2.2973,2.2988,2.3014,2.2998,2.3024,2.3021,2.3021,2.3035,2.3014,2.3028,2.301,2.3022,2.3012,2.3036,2.3038,2.3034,2.3031,2.3036,2.3037,2.304,2.3036,2.3024,2.3023,2.3023,2.3022,0,2.3032,2.3021,2.3047,2.3042,2.3041,2.3061,2.3056,2.307,2.3063,2.3081,2.3084,2.3074,2.3086,2.3074,2.3087,2.308,2.3112,2.3103,2.3111,2.3109,2.3135,2.3133,2.3221,2.3232,2.3148,2.3149,2.3149,0,2.3071,2.3089,2.3087,2.3095,2.3095,2.3109,2.3115,2.31,2.3107,2.311,2.3123,2.3135,2.3143,2.3164,2.3157,2.3167,2.3159,2.3189,2.316,2.3164,2.316,2.3159,2.3161,2.3195,2.3196,2.3197,2.3197,0,2.3143,2.3137,2.3147,2.3156,2.3164,2.317,2.3175,2.3182,2.3167,2.3176,2.3189,2.3196,2.3208,2.3219,2.3227,2.3225,2.3209,2.3207,2.3213,2.3218,2.3222,2.3221,2.3128,2.3205,2.3204,2.3203,2.3203,2.3203,2.3197,2.3212,2.3212,2.3224,2.3226,2.3231,2.3244,2.3238,2.3249,2.3258,2.3248,2.3265,2.3265,2.3273,2.3274,2.3286,2.3273,2.3283,2.3285,2.3288,2.3292,2.322,2.3287,2.3287,2.3287,2.3287,2.3286,0,2.3268,2.3267,2.3278,2.3285,2.3295,2.3279,2.3283,2.3292,2.3306,2.3308,2.3317,2.3332,2.3343,2.3337,2.3346,2.3357,2.335,2.336,2.3359,2.336,2.3302,2.3296,2.3366,2.3366,2.3366,2.3366,2.3366,2.3366,2.3306,2.333,2.3324,2.3349,2.3348,2.3364,2.3368,2.3372,2.3373,2.3391,2.34,2.3396,2.3395,2.3404,2.3414,2.3412,2.3416,2.3429,2.3425,2.3371,2.3363,2.3356,2.335,2.343,2.3431,2.3481,2.3482,2.3482]}]]